Regional Weather Roundup
Issued by NWS

Home | Current Version | Previous Version | Text Only | Print | Product List | Glossary On
Versions: 1 2 3 4 5 6 7 8 9 10 11 12 13 14 15 16 17 18 19 20 21 22 23 24 25 26 27 28 29 30 31 32 33 34 35 36 37 38 39 40 41 42 43 44 45 46 47 48 49 50
000
ASUS43 KMKX 192100
RWRWI

WISCONSIN REGIONAL WEATHER ROUNDUP
NATIONAL WEATHER SERVICE MILWAUKEE/SULLIVAN WI
400 PM CDT FRI SEP 19 2014

NOTE: "FAIR" INDICATES FEW OR NO CLOUDS BELOW 12,000 FEET WITH NO
SIGNIFICANT WEATHER AND/OR OBSTRUCTIONS TO VISIBILITY.

WIZ001-002-006>008-014>016-023>028-192200-
NORTHWEST WISCONSIN

CITY           SKY/WX    TMP DP  RH WIND       PRES   REMARKS
SUPERIOR ARPT  LGT RAIN  64  59  83 SW15G22   29.67F
ASHLAND        CLOUDY    65  56  72 SW10G17   29.71R
HAYWARD        CLOUDY    66  57  72 S10       29.73S
SIREN          CLOUDY    67  59  76 CALM      29.71F
RICE LAKE      CLOUDY    70  57  62 S12       29.74S
LADYSMITH      PTSUNNY   68  56  65 S12G23    29.76S
EAU CLAIRE     NOT AVBL
MENOMONIE      MOCLDY    75  57  53 S20G30    29.72F
NEW RICHMOND   CLOUDY    73  59  61 SW10G20   29.71S
OSCEOLA        CLOUDY    72  62  69 SW3       29.73S
$$

WIZ003>005-009-010-017-018-192200-
NORTH CENTRAL WISCONSIN

CITY           SKY/WX    TMP DP  RH WIND       PRES   REMARKS
WOODRUFF       PTSUNNY   67  53  61 S20G28    29.77F
RHINELANDER    MOSUNNY   68  51  54 S18G35    29.80F
EAGLE RIVER    PTSUNNY   67  49  52 S16G22    29.78F
LAND O LAKES   PTSUNNY   65  50  58 S8G20     29.77F
PHILLIPS       CLOUDY    68  55  61 S16G28    29.73F
TOMAHAWK       SUNNY     69  53  57 S9G23     29.80F
MEDFORD        CLOUDY    68  54  60 S23G29    29.79F
MERRILL        MOSUNNY   69  54  59 S16G28    29.82F
$$

WIZ029-030-035-036-043>047-192200-
CENTRAL WISCONSIN

CITY           SKY/WX    TMP DP  RH WIND       PRES   REMARKS
WAUSAU         MOSUNNY   71  53  52 S24G31    29.81F
MOSINEE        NOT AVBL
MARSHFIELD     PTSUNNY   72  54  53 S24G35    29.80F
STEVENS POINT  MOSUNNY   70  52  51 S22G28    29.86F
WAUPACA        MOSUNNY   74  52  45 S15G31    29.89F
WAUTOMA        NOT AVBL
WISC RAPIDS    MOSUNNY   72  52  49 SW20G30   29.87F
CAMP DOUGLAS   NOT AVBL
$$

WIZ011>013-019>022-031-037>040-048>050-192200-
NORTHEAST WISCONSIN

CITY           SKY/WX    TMP DP  RH WIND       PRES   REMARKS
ANTIGO         PTSUNNY   69  53  57 S23G29    29.84F
STURGEON BAY   PTSUNNY   63  55  77 S21G31    29.91F
GREEN BAY      MOSUNNY   72  51  47 S17G26    29.89F
MANITOWOC      NOT AVBL
APPLETON       PTSUNNY   72  48  43 S26G32    29.90F
CLINTONVILLE   PTSUNNY   72  50  46 S17G23    29.88S
OSHKOSH        MOSUNNY   72  50  45 S21G41    29.91F
$$

WIZ032>034-041-042-053>061-192200-
SOUTHWEST WISCONSIN

CITY           SKY/WX    TMP DP  RH WIND       PRES   REMARKS
LA CROSSE      SUNNY     76  56  49 S22G32    29.79F
SPARTA         CLOUDY    75  53  46 S18G26    29.85F
VIROQUA        MOCLDY    73  53  49 S17G26    29.87F
BOSCOBEL       MOSUNNY   77  53  43 S12G26    29.89F
PRAIRIE DU CHI PTSUNNY   74  53  46 SE6G20    29.88F
PLATTEVILLE    FAIR      74  53  46 S23       29.96F
$$

WIZ056-057-062-063-064-067-068-192200-
SOUTH CENTRAL WISCONSIN

CITY           SKY/WX    TMP DP  RH WIND       PRES   REMARKS
BARABOO/DELLS  MOSUNNY   73  50  43 S20G26    29.91F
LONE ROCK      NOT AVBL
WATERTOWN      SUNNY     73  50  44 S22       29.96F
MADISON        PTSUNNY   74  50  42 S17G26    29.95F
MIDDLETON      FAIR      74  47  37 S15G24    29.96F
MONROE         SUNNY     73  50  43 S18G25    29.98F
JANESVILLE     SUNNY     75  46  35 S18G28    29.97F
$$

WIZ051-052-058>065-066-070>072-192200-
SOUTHEAST WISCONSIN

CITY           SKY/WX    TMP DP  RH WIND       PRES   REMARKS
MILWAUKEE      PTSUNNY   71  51  49 S18       29.98F
WAUKESHA       NOT AVBL
MILWAUKEE/TIMM SUNNY     72  45  37 S14G29    29.98F
RACINE         SUNNY     69  52  54 S16G28    30.02F
BURLINGTON     SUNNY     72  48  42 S14G22    29.99F
KENOSHA        SUNNY     73  48  41 S21       30.00F
FOND DU LAC    MOSUNNY   72  48  42 S18G32    29.92F
SHEBOYGAN      SUNNY     69  53  56 S18G26    29.95F
WEST BEND      MOSUNNY   72  45  37 S13G25    29.97F
JUNEAU         MOSUNNY   72  49  43 S18G30    29.97F
$$

LSZ147-162-192200-
LAKE SUPERIOR

STATION/POSITION TIME  TEMP    WIND        PRES    WAVE
                       AIR SEA DIR/SP/G            HT/PER
                 (UTC) (F)     (DEG/KT/KT) (MB)    (FT/S)
W MID LAKE BUOY  1950   53 48  190/  6/  6 1005.6F   2/ 5
DEVILS ISLAND    2000   60     220/  4/  4 1005.5F
PORT WING        2000   67     210/  7/ 16 1006.1
SAXON HARBOR     2000   69     200/  9/ 19 1005.4F
$$

LMZ867-665-643>646-192200-
LAKE MICHIGAN

STATION/POSITION TIME  TEMP    WIND        PRES    WAVE
                       AIR SEA DIR/SP/G            HT/PER
                 (UTC) (F)     (DEG/KT/KT) (MB)    (FT/S)
N MID LAKE BUOY  1950   60 58  190/ 25/ 29 1013.7F   6/ 7
NORTHPORT PIER   2029   60     160/ 11/ 26 1012.9F
KEWAUNEE LAKESHO 2000   57     170/ 17/ 20 1013.5F
SHEBOYGAN LAKESH 2000   57 54  180/ 17/ 20 1015.6F
PORT WASHINGTON  2040   65     200/  8/ 13 1015.6F
ATWATER BUOY     2000   61     160/ 19/ 25 1017.0F
MILWAUKEE LAKESH 2000   61     150/ 20/ 23   N/A
S MID LAKE BUOY  1950   65 65  170/ 14/ 17 1018.6F   3/ 5
KENOSHA   LAKESH 2000   64     160/ 18/ 19 1016.6F
$$

TC  - TEMPERATURE IN CELSIUS
VSB - VISIBILITY IN STATUTE MILES
WCI - WIND CHILL INDEX
HX  - HEAT INDEX




USA.gov is the U.S. government's official web portal to all federal, state and local government web resources and services.